• In Uzbekistan
  • List of Countries
  • For 7 days
  • Water Temperature
  • Satellite Maps
  • Weather Map
  • Weather Widgets
  • user-avatar
    Login

    Hourly Weather San Luis

    Today, 24 May, Wednesday

    Time Temperature Precipitation Wind Pressure Humidity
    00:00 +9°C° 0 mm 2 mps 697 mmHg 88%
    01:00 +9°C° 0 mm 2 mps 697 mmHg 89%
    02:00 +8°C° 0 mm 2 mps 697 mmHg 88%
    03:00 +8°C° 0 mm 2 mps 697 mmHg 89%
    04:00 +8°C° 0 mm 2 mps 697 mmHg 90%
    05:00 +8°C° 0 mm 2 mps 697 mmHg 91%
    06:00 +8°C° 0 mm 2 mps 697 mmHg 91%
    07:00 +8°C° 0 mm 2 mps 697 mmHg 91%
    08:00 +8°C° 0 mm 2 mps 698 mmHg 92%
    09:00 +10°C° 0 mm 2 mps 698 mmHg 84%
    10:00 +13°C° 0 mm 2 mps 698 mmHg 77%
    11:00 +14°C° 0 mm 2 mps 699 mmHg 70%
    12:00 +15°C° 0 mm 2 mps 698 mmHg 68%
    13:00 +15°C° 0 mm 2 mps 698 mmHg 67%
    14:00 +16°C° 0 mm 2 mps 697 mmHg 66%
    15:00 +14°C° 0 mm 3 mps 697 mmHg 69%
    16:00 +14°C° 0 mm 3 mps 697 mmHg 73%
    17:00 +13°C° 0 mm 4 mps 697 mmHg 76%
    18:00 +12°C° 0 mm 4 mps 697 mmHg 79%
    19:00 +12°C° 0 mm 4 mps 697 mmHg 82%
    20:00 +11°C° 0 mm 4 mps 697 mmHg 85%
    21:00 +11°C° 0 mm 4 mps 698 mmHg 85%
    22:00 +11°C° 0 mm 4 mps 698 mmHg 86%
    23:00 +11°C° 0 mm 3 mps 698 mmHg 86%

    Tomorrow, 25 May, Thursday

    Time Temperature Precipitation Wind Pressure Humidity
    00:00 +11°C° 0.1 mm 3 mps 697 mmHg 87%
    01:00 +11°C° 0.1 mm 3 mps 697 mmHg 88%
    02:00 +11°C° 0.1 mm 3 mps 697 mmHg 89%
    03:00 +12°C° 0.1 mm 2 mps 697 mmHg 90%
    04:00 +10°C° 0.1 mm 2 mps 696 mmHg 92%
    05:00 +10°C° 0.1 mm 2 mps 696 mmHg 93%
    06:00 +10°C° 0.4 mm 2 mps 696 mmHg 93%
    07:00 +10°C° 0.4 mm 2 mps 696 mmHg 93%
    08:00 +12°C° 0.4 mm 2 mps 697 mmHg 93%
    09:00 +12°C° 0.1 mm 2 mps 697 mmHg 88%
    10:00 +12°C° 0.1 mm 3 mps 698 mmHg 83%
    11:00 +13°C° 0.1 mm 4 mps 698 mmHg 78%
    12:00 +13°C° 0 mm 4 mps 698 mmHg 76%
    13:00 +13°C° 0 mm 4 mps 698 mmHg 73%
    14:00 +13°C° 0 mm 5 mps 698 mmHg 70%
    15:00 +13°C° 0 mm 5 mps 698 mmHg 72%
    16:00 +12°C° 0 mm 5 mps 698 mmHg 74%
    17:00 +12°C° 0 mm 5 mps 699 mmHg 76%
    18:00 +10°C° 0 mm 5 mps 699 mmHg 80%
    19:00 +10°C° 0 mm 4 mps 700 mmHg 84%
    20:00 +8°C° 0 mm 4 mps 700 mmHg 88%
    21:00 +8°C° 0 mm 3 mps 700 mmHg 87%
    22:00 +7°C° 0 mm 3 mps 701 mmHg 87%
    23:00 +7°C° 0 mm 2 mps 701 mmHg 87%

    Day after tomorrow, 26 May, Friday

    Time Temperature Precipitation Wind Pressure Humidity
    00:00 +7°C° 0 mm 2 mps 702 mmHg 86%
    01:00 +6°C° 0 mm 2 mps 702 mmHg 84%
    02:00 +6°C° 0 mm 2 mps 702 mmHg 83%
    03:00 +6°C° 0 mm 2 mps 702 mmHg 81%
    04:00 +6°C° 0 mm 2 mps 702 mmHg 79%
    05:00 +6°C° 0 mm 2 mps 702 mmHg 78%
    06:00 +6°C° 0 mm 2 mps 703 mmHg 76%
    07:00 +5°C° 0 mm 3 mps 704 mmHg 75%
    08:00 +5°C° 0 mm 3 mps 704 mmHg 74%
    09:00 +8°C° 0 mm 3 mps 705 mmHg 65%
    10:00 +10°C° 0 mm 4 mps 706 mmHg 57%
    11:00 +12°C° 0 mm 5 mps 706 mmHg 48%
    12:00 +12°C° 0 mm 4 mps 706 mmHg 45%
    13:00 +13°C° 0 mm 4 mps 706 mmHg 41%
    14:00 +14°C° 0 mm 4 mps 705 mmHg 38%
    15:00 +13°C° 0 mm 4 mps 705 mmHg 41%
    16:00 +12°C° 0 mm 4 mps 705 mmHg 44%
    17:00 +12°C° 0 mm 4 mps 705 mmHg 47%
    18:00 +10°C° 0 mm 4 mps 705 mmHg 52%
    19:00 +8°C° 0 mm 4 mps 706 mmHg 56%
    20:00 +7°C° 0 mm 4 mps 706 mmHg 60%
    21:00 +7°C° 0 mm 4 mps 706 mmHg 62%
    22:00 +7°C° 0 mm 4 mps 707 mmHg 63%
    23:00 +6°C° 0 mm 4 mps 707 mmHg 64%

    27 May, Saturday

    Time Temperature Precipitation Wind Pressure Humidity
    00:00 +6°C° 0 mm 4 mps 707 mmHg 65%
    01:00 +6°C° 0 mm 4 mps 707 mmHg 65%
    02:00 +7°C° 0 mm 3 mps 706 mmHg 65%
    03:00 +5°C° 0 mm 3 mps 706 mmHg 65%
    04:00 +5°C° 0 mm 3 mps 706 mmHg 64%
    05:00 +5°C° 0 mm 3 mps 705 mmHg 64%
    06:00 +5°C° 0 mm 3 mps 706 mmHg 63%
    07:00 +7°C° 0 mm 3 mps 706 mmHg 62%
    08:00 +7°C° 0 mm 2 mps 706 mmHg 61%
    09:00 +9°C° 0 mm 2 mps 706 mmHg 55%
    10:00 +11°C° 0 mm 3 mps 707 mmHg 48%
    11:00 +13°C° 0 mm 3 mps 707 mmHg 42%
    12:00 +14°C° 0 mm 3 mps 706 mmHg 40%
    13:00 +14°C° 0 mm 3 mps 705 mmHg 38%
    14:00 +16°C° 0 mm 3 mps 704 mmHg 37%
    15:00 +15°C° 0 mm 2 mps 704 mmHg 41%
    16:00 +14°C° 0 mm 2 mps 703 mmHg 45%
    17:00 +14°C° 0 mm 2 mps 703 mmHg 49%
    18:00 +12°C° 0 mm 2 mps 703 mmHg 52%
    19:00 +10°C° 0 mm 2 mps 703 mmHg 55%
    20:00 +9°C° 0 mm 2 mps 703 mmHg 58%
    21:00 +9°C° 0 mm 2 mps 703 mmHg 57%
    22:00 +8°C° 0 mm 2 mps 703 mmHg 57%
    23:00 +8°C° 0 mm 2 mps 703 mmHg 57%

    28 May, Sunday

    Time Temperature Precipitation Wind Pressure Humidity
    00:00 +8°C° 0 mm 2 mps 702 mmHg 57%
    01:00 +8°C° 0 mm 2 mps 702 mmHg 57%
    02:00 +7°C° 0 mm 3 mps 702 mmHg 57%
    03:00 +7°C° 0 mm 3 mps 701 mmHg 58%
    04:00 +7°C° 0 mm 3 mps 701 mmHg 59%
    05:00 +7°C° 0 mm 3 mps 701 mmHg 61%
    06:00 +7°C° 0 mm 3 mps 701 mmHg 61%
    07:00 +7°C° 0 mm 3 mps 701 mmHg 62%
    08:00 +7°C° 0 mm 3 mps 701 mmHg 63%
    09:00 +9°C° 0 mm 3 mps 702 mmHg 56%
    10:00 +11°C° 0 mm 3 mps 702 mmHg 49%
    11:00 +14°C° 0 mm 3 mps 702 mmHg 42%
    12:00 +14°C° 0 mm 3 mps 702 mmHg 41%
    13:00 +16°C° 0 mm 3 mps 701 mmHg 39%
    14:00 +17°C° 0 mm 3 mps 700 mmHg 37%
    15:00 +16°C° 0 mm 2 mps 700 mmHg 42%
    16:00 +15°C° 0 mm 2 mps 700 mmHg 47%
    17:00 +14°C° 0 mm 2 mps 699 mmHg 52%
    18:00 +13°C° 0 mm 2 mps 699 mmHg 55%
    19:00 +12°C° 0 mm 2 mps 700 mmHg 58%
    20:00 +10°C° 0 mm 2 mps 700 mmHg 61%
    21:00 +10°C° 0 mm 2 mps 700 mmHg 62%
    22:00 +9°C° 0 mm 2 mps 700 mmHg 63%
    23:00 +9°C° 0 mm 2 mps 700 mmHg 63%

    29 May, Monday

    Time Temperature Precipitation Wind Pressure Humidity
    00:00 +9°C° 0 mm 2 mps 700 mmHg 63%
    01:00 +8°C° 0 mm 2 mps 700 mmHg 63%
    02:00 +8°C° 0 mm 2 mps 700 mmHg 62%
    03:00 +9°C° 0 mm 1 mps 700 mmHg 65%
    04:00 +8°C° 0 mm 1 mps 700 mmHg 67%
    05:00 +8°C° 0 mm 1 mps 700 mmHg 70%
    06:00 +8°C° 0 mm 1 mps 701 mmHg 72%
    07:00 +8°C° 0 mm 1 mps 701 mmHg 74%
    08:00 +8°C° 0 mm 1 mps 702 mmHg 76%
    09:00 +10°C° 0 mm 1 mps 703 mmHg 70%
    10:00 +12°C° 0 mm 1 mps 704 mmHg 63%
    11:00 +14°C° 0 mm 2 mps 704 mmHg 57%
    12:00 +13°C° 0 mm 3 mps 704 mmHg 55%
    13:00 +14°C° 0 mm 3 mps 704 mmHg 53%
    14:00 +14°C° 0 mm 4 mps 704 mmHg 51%
    15:00 +14°C° 0 mm 4 mps 704 mmHg 57%
    16:00 +13°C° 0 mm 4 mps 704 mmHg 62%
    17:00 +12°C° 0 mm 5 mps 704 mmHg 67%
    18:00 +11°C° 0 mm 4 mps 704 mmHg 72%
    19:00 +10°C° 0 mm 4 mps 705 mmHg 78%
    20:00 +9°C° 0 mm 3 mps 705 mmHg 83%
    21:00 +9°C° 0 mm 3 mps 705 mmHg 85%
    22:00 +8°C° 0 mm 3 mps 705 mmHg 86%
    23:00 +8°C° 0 mm 2 mps 706 mmHg 88%
    Show more